Simultaneous Nadir Overpasses (SNOs) Predictions

Prediction of SNOs between NOAA-20 and METOP-B Satellite Orbit:

Table of predicted SNOs for the next 14.0 days since TLE Epoch: 8/26/2022
Index Date (NOAA-20) Time (NOAA-20) Lat,Lon (NOAA-20) SZA (NOAA-20 ) Date (METOP-B) Time (METOP-B) Lat,Lon (METOP-B) SZA (METOP-B ) Distance(km) Time Diff (sec)
1 09/09/2022 01:03:28 73.36, 154.66 68.10 09/09/2022 01:04:36 73.34, 156.84 67.98 69.52 68
2 09/09/2022 01:54:10 -73.26, -37.80 112.00 09/09/2022 01:55:20 -73.23, -36.07 112.12 55.34 70
3 09/09/2022 02:44:52 73.07, 129.95 67.80 09/09/2022 02:46:04 73.01, 130.79 67.70 28.04 72



Historial Predications of SNOs between NOAA-20 and METOP-B
